[[{"header":{"parameterUnit":"m.s-1","parameterCategory":1,"la1":30.2991,"la2":30.254,"lo1":-89.0895,"lo2":-89.0444,"dx":0.0017,"dy":0.0017,"nx":28,"ny":28,"refTime":"2022-11-05T15:00:00:Z","depth":0,"parameterNumber":2,"parameterNumberName":"U-component_of_WINDS"},"data":[0,0,0,0,0,0,0,0,0,0,0,0,0,0,0,0,0,0,0,0,0,0,0,0,0,0,0,0,0,0,0,0,0,0,0,0,0,0,0,0,0,0,0,0,0,0,0,0,0,0,0,0,0,0,0,0,0,0,-0.8691,-0.8691,0,-0.8699,-0.8699,-0.8699,-0.8705,-0.8706,-0.8706,-0.8706,-0.8713,-0.8714,-0.8714,0,0,0,0,0,0,0,0,0,0,0,0,0,-0.8681,-0.8682,-0.8691,-0.8691,-0.8691,-0.8699,-0.8699,-0.8699,-0.8705,-0.8706,-0.8706,-0.8706,-0.8713,-0.8713,-0.8714,0,0,0,0,0,0,0,0,0,0,0,0,0,-0.8687,-0.8682,-0.8691,-0.8695,-0.8696,-0.8699,-0.8699,-0.8699,-0.8705,-0.8706,-0.8706,-0.8706,-0.8713,-0.8713,-0.8714,-0.8713,0,0,-0.8714,-0.8714,0,0,0,0,0,0,0,0,-0.8687,-0.8687,-0.8695,-0.8695,-0.8696,-0.8701,-0.8699,-0.8704,-0.8705,-0.8702,-0.8706,-0.8706,-0.8709,-0.871,-0.8711,-0.8714,-0.8714,-0.8714,-0.8715,-0.8715,-0.8715,0,0,0,0,0,0,0,-0.8686,-0.8687,-0.8694,-0.8695,-0.8695,-0.8697,-0.8698,-0.87,-0.8705,-0.8702,-0.8703,-0.8703,-0.871,-0.8711,-0.8711,-0.8714,-0.8714,-0.8715,-0.8715,-0.8715,-0.8717,-0.8717,0,0,0,0,0,0,-0.8685,-0.8687,-0.8694,-0.8695,-0.8691,-0.8697,-0.8698,-0.8699,-0.8705,-0.8706,-0.8703,-0.8704,-0.871,-0.8711,-0.8712,-0.8712,-0.8715,-0.8715,-0.8715,-0.8717,-0.8717,-0.8717,0,0,0,0,0,0,-0.8685,-0.8686,-0.8694,-0.8691,-0.8692,-0.8697,-0.8699,-0.87,-0.8701,-0.8706,-0.8707,-0.8704,-0.8711,-0.8711,-0.8713,-0.8712,-0.8715,-0.8715,-0.8717,-0.8717,-0.8717,-0.8712,0,0,0,0,0,0,-0.8685,-0.8686,-0.8686,-0.8691,-0.8692,-0.8695,-0.8699,-0.87,-0.8701,-0.8702,-0.8706,-0.8707,-0.8711,-0.8713,-0.8713,-0.8712,-0.8715,-0.8717,-0.8717,-0.8717,-0.8712,-0.8711,-0.8711,0,0,0,0,0,-0.8684,-0.8684,-0.8686,-0.8686,-0.8692,-0.8695,-0.8696,-0.87,-0.8701,-0.8701,-0.8704,-0.8707,-0.8712,-0.8713,-0.8713,-0.8713,-0.8717,-0.8717,-0.8717,-0.8712,-0.8711,-0.8711,0,0,0,0,0,0,-0.8678,-0.8684,-0.8687,-0.8688,-0.8691,-0.8696,-0.8696,-0.8699,-0.8701,-0.8702,-0.8706,-0.8707,-0.8708,-0.8711,-0.8711,-0.8713,-0.8715,-0.8715,-0.8711,-0.871,-0.871,-0.8709,-0.8715,0,0,0,0,0,-0.8677,-0.8679,-0.8684,-0.8684,-0.8686,-0.8691,-0.8692,-0.8695,-0.8698,-0.8699,-0.8703,-0.8706,-0.8708,-0.8709,-0.8712,-0.8712,-0.8713,-0.8712,-0.8712,-0.8711,-0.8711,-0.8712,-0.8711,-0.8716,-0.8716,-0.8716,0,0,-0.8674,-0.8678,-0.8679,-0.8683,-0.8686,-0.8688,-0.8692,-0.8693,-0.8695,-0.87,-0.8701,-0.8704,-0.8708,-0.8709,-0.8709,-0.8711,-0.871,-0.8711,-0.871,-0.8711,-0.8711,-0.8711,-0.8711,-0.8716,-0.8716,-0.8716,0,0,-0.8671,-0.8673,-0.8674,-0.8677,-0.8681,-0.8684,-0.8684,-0.8689,-0.8691,-0.8693,-0.8697,-0.8699,-0.8702,-0.8705,-0.8707,-0.8704,-0.8707,-0.8705,-0.8702,-0.8703,-0.8702,-0.8702,-0.8701,-0.8701,-0.8705,-0.8705,-0.8705,0,-0.8667,-0.867,-0.8674,-0.8676,-0.8678,-0.8682,-0.8683,-0.8686,-0.869,-0.8691,-0.8693,-0.8698,-0.8701,-0.8703,-0.8702,-0.8703,-0.8704,-0.8704,-0.8702,-0.8702,-0.8702,-0.8701,-0.8701,-0.8705,-0.8705,-0.8705,-0.8705,0,-0.8665,-0.8667,-0.8667,-0.8671,-0.8673,-0.8674,-0.8679,-0.8681,-0.8683,-0.8686,-0.8688,-0.8692,-0.8695,-0.8696,-0.8699,-0.8698,-0.8699,-0.8701,-0.8704,-0.8701,-0.87,-0.87,-0.8704,-0.8704,-0.8704,-0.8704,0,0,-0.8657,-0.8664,-0.8664,-0.8667,-0.8672,-0.8673,-0.8675,-0.8678,-0.8679,-0.8682,-0.8684,-0.8687,-0.8689,-0.8691,-0.8694,-0.8695,-0.8693,-0.8697,-0.8697,-0.8696,-0.8693,-0.8691,-0.8691,-0.8695,-0.8695,-0.8695,-0.8693,0,-0.8654,-0.8657,-0.8661,-0.8663,-0.8665,-0.8669,-0.8671,-0.8674,-0.8677,-0.8679,-0.8682,-0.8685,-0.8687,-0.8689,-0.8689,-0.8693,-0.8692,-0.8693,-0.8696,-0.8696,-0.8695,-0.8691,-0.8689,-0.8687,-0.8692,-0.8692,-0.8692,0,-0.8651,-0.8654,-0.8656,-0.8661,-0.8662,-0.8663,-0.8667,-0.8669,-0.8673,-0.8675,-0.8677,-0.868,-0.8682,-0.8685,-0.8687,-0.8688,-0.8689,-0.8691,-0.8691,-0.8692,-0.8694,-0.8691,-0.8686,-0.8686,-0.8692,-0.8692,-0.8692,0,-0.8645,-0.865,-0.8651,-0.8653,-0.8659,-0.866,-0.8663,-0.8667,-0.8669,-0.8672,-0.8673,-0.8676,-0.8678,-0.868,-0.8685,-0.8686,-0.8687,-0.8689,-0.8689,-0.8689,-0.8689,-0.8689,-0.8684,-0.869,-0.869,-0.869,-0.869,0,-0.8641,-0.8642,-0.8649,-0.865,-0.8651,-0.8656,-0.8657,-0.866,-0.8664,-0.8666,-0.867,-0.8672,-0.8677,-0.8679,-0.8683,-0.8684,-0.8685,-0.8687,-0.8688,-0.8687,-0.8686,-0.8688,-0.8688,-0.8689,-0.869,-0.869,-0.869,0,-0.8635,-0.864,-0.8642,-0.8648,-0.8649,-0.865,-0.8655,-0.8656,-0.8659,-0.8662,-0.8662,-0.8668,-0.867,-0.8675,-0.8679,-0.8681,-0.8683,-0.8684,-0.8681,-0.8682,-0.8681,-0.8681,-0.8677,-0.8677,-0.8682,-0.8682,-0.8682,0,-0.8632,-0.8633,-0.8639,-0.8641,-0.8643,-0.8646,-0.8648,-0.8653,-0.8655,-0.8659,-0.866,-0.8663,-0.8666,-0.8671,-0.8675,-0.8678,-0.868,-0.8678,-0.868,-0.8679,-0.868,-0.868,-0.868,-0.8677,-0.8677,-0.8677,-0.8677,0,-0.8627,-0.8629,-0.8632,-0.8636,-0.8638,-0.8641,-0.8645,-0.8646,-0.8651,-0.8653,-0.8656,-0.8659,-0.8663,-0.8666,-0.867,-0.8673,-0.8676,-0.8677,-0.8677,-0.8675,-0.8674,-0.8675,-0.868,-0.8677,-0.8677,-0.8677,-0.8677,-0.8677,-0.8623,-0.8624,-0.8628,-0.8631,-0.8634,-0.8637,-0.8639,-0.8643,-0.8645,-0.8649,-0.8652,-0.8655,-0.8659,-0.8665,-0.8667,-0.867,-0.8671,-0.8671,-0.8671,-0.8671,-0.8671,-0.8673,-0.8671,-0.8671,-0.8671,-0.8671,-0.8671,0,-0.8618,-0.8621,-0.8624,-0.8628,-0.8631,-0.8634,-0.8638,-0.8639,-0.8642,-0.8646,-0.8649,-0.8652,-0.8655,-0.866,-0.8664,-0.8665,-0.8666,-0.8665,-0.8665,-0.8666,-0.8669,-0.8669,-0.8664,-0.8664,-0.8664,-0.8664,-0.8664,-0.8664,-0.8615,-0.8618,-0.862,-0.8624,-0.8627,-0.863,-0.8632,-0.8635,-0.8638,-0.8642,-0.8645,-0.8648,-0.8652,-0.8656,-0.8659,-0.8661,-0.8662,-0.8661,-0.8662,-0.8665,-0.8666,-0.8666,-0.8666,-0.8661,-0.8661,-0.8659,-0.8659,-0.8659]},{"header":{"parameterUnit":"m.s-1","parameterCategory":1,"la1":30.2991,"la2":30.254,"lo1":-89.0895,"lo2":-89.0444,"dx":0.0017,"dy":0.0017,"nx":28,"ny":28,"refTime":"2022-11-05T15:00:00:Z","depth":0,"parameterNumber":3,"parameterNumberName":"V-component_of_WINDS"},"data":[0,0,0,0,0,0,0,0,0,0,0,0,0,0,0,0,0,0,0,0,0,0,0,0,0,0,0,0,0,0,0,0,0,0,0,0,0,0,0,0,0,0,0,0,0,0,0,0,0,0,0,0,0,0,0,0,0,0,4.3605,4.3605,0,4.3613,4.3613,4.3613,4.3552,4.3551,4.3549,4.3547,4.3555,4.3556,4.3558,0,0,0,0,0,0,0,0,0,0,0,0,0,4.3535,4.3536,4.3605,4.3605,4.3605,4.3613,4.3613,4.3613,4.3553,4.3551,4.3549,4.3547,4.3554,4.3556,4.3558,0,0,0,0,0,0,0,0,0,0,0,0,0,4.3556,4.3537,4.3605,4.3576,4.3573,4.3613,4.3613,4.3613,4.3553,4.3551,4.3548,4.3546,4.3553,4.3556,4.3559,4.3627,0,0,4.3567,4.3568,0,0,0,0,0,0,0,0,4.3555,4.3559,4.358,4.3578,4.3575,4.3579,4.3591,4.3618,4.3554,4.3561,4.3547,4.3544,4.3565,4.3566,4.3574,4.3627,4.3627,4.3567,4.3569,4.357,4.3571,0,0,0,0,0,0,0,4.3554,4.3558,4.3608,4.358,4.3577,4.3562,4.3562,4.3596,4.3577,4.356,4.3555,4.3557,4.3563,4.3571,4.3573,4.3627,4.3567,4.3569,4.3571,4.3572,4.3739,4.3741,0,0,0,0,0,0,4.3556,4.3558,4.3608,4.3608,4.3559,4.3565,4.3565,4.358,4.3576,4.3573,4.356,4.3555,4.3568,4.357,4.3573,4.3654,4.357,4.3572,4.3574,4.3736,4.3739,4.3742,0,0,0,0,0,0,4.3555,4.3561,4.3607,4.3582,4.3586,4.3569,4.3586,4.3582,4.359,4.3576,4.3572,4.3572,4.3566,4.357,4.3614,4.3653,4.3574,4.3576,4.3733,4.3737,4.3741,4.3815,0,0,0,0,0,0,4.3553,4.3561,4.3587,4.3583,4.3588,4.3649,4.3589,4.3584,4.3595,4.3588,4.3586,4.3584,4.3564,4.3611,4.3617,4.3656,4.3578,4.3729,4.3734,4.3739,4.3809,4.3822,4.3832,0,0,0,0,0,4.3551,4.3607,4.3589,4.3595,4.362,4.3651,4.3654,4.3631,4.3598,4.3624,4.3616,4.3584,4.3648,4.3616,4.3622,4.3663,4.3726,4.3733,4.3739,4.3804,4.3819,4.3832,0,0,0,0,0,0,4.3616,4.3606,4.3586,4.3642,4.3648,4.3641,4.3672,4.3647,4.3662,4.3655,4.3625,4.3625,4.3676,4.3673,4.3637,4.3729,4.3681,4.3689,4.3729,4.3743,4.3754,4.3754,4.358,0,0,0,0,0,4.3636,4.3663,4.3653,4.3703,4.3708,4.369,4.3702,4.3684,4.3689,4.3691,4.3685,4.3691,4.3713,4.3727,4.3746,4.3808,4.3808,4.3839,4.3851,4.386,4.3868,4.3902,4.3916,4.3763,4.3763,4.3763,0,0,4.368,4.3678,4.3696,4.3716,4.3719,4.3747,4.3692,4.3724,4.3745,4.3695,4.3738,4.3735,4.3739,4.3793,4.3817,4.3793,4.391,4.3868,4.3876,4.3878,4.391,4.3925,4.3938,4.3767,4.3767,4.3766,0,0,4.3773,4.3774,4.3817,4.3821,4.3826,4.3814,4.3824,4.3821,4.3818,4.386,4.3824,4.3848,4.3885,4.389,4.3898,4.3995,4.3967,4.4002,4.4062,4.4095,4.4108,4.4118,4.4154,4.4167,4.4009,4.4009,4.4009,0,4.3826,4.3868,4.3842,4.3877,4.3888,4.3845,4.3889,4.3894,4.3905,4.3913,4.3886,4.3933,4.3932,4.3988,4.4012,4.4019,4.4031,4.4002,4.4108,4.4118,4.4128,4.4162,4.4175,4.4014,4.4013,4.4013,4.4012,0,4.3933,4.3963,4.3997,4.401,4.4024,4.4063,4.4043,4.4061,4.4042,4.4033,4.4077,4.4075,4.4094,4.4105,4.4086,4.4159,4.4144,4.4113,4.4065,4.4147,4.4179,4.4192,4.402,4.4018,4.4017,4.4016,0,0,4.4068,4.4067,4.408,4.4086,4.4089,4.4111,4.4148,4.4167,4.4184,4.4192,4.4224,4.4257,4.4229,4.4237,4.4218,4.4248,4.4327,4.4213,4.4213,4.4236,4.4409,4.4433,4.4449,4.4308,4.431,4.4312,4.4409,0,4.416,4.4225,4.4204,4.4269,4.4297,4.4258,4.429,4.4296,4.4289,4.4311,4.4302,4.4327,4.4287,4.4292,4.4319,4.4312,4.4361,4.4304,4.4337,4.4339,4.4339,4.4465,4.4491,4.4583,4.4421,4.4423,4.4424,0,4.4277,4.4292,4.4361,4.4361,4.4372,4.4402,4.4418,4.444,4.4445,4.4438,4.4448,4.4424,4.446,4.4412,4.4463,4.4424,4.4437,4.4435,4.4438,4.4441,4.4388,4.4473,4.4611,4.4626,4.4443,4.4442,4.444,0,4.437,4.4408,4.4454,4.446,4.4461,4.4483,4.4484,4.4487,4.4501,4.4515,4.4523,4.4541,4.4551,4.4566,4.4547,4.4513,4.4601,4.4551,4.4597,4.4598,4.4618,4.4618,4.4762,4.4624,4.4624,4.4624,4.4623,0,4.4477,4.4521,4.4497,4.4525,4.4574,4.4549,4.4597,4.4594,4.4597,4.4625,4.4591,4.4617,4.459,4.4614,4.4599,4.4645,4.4649,4.4645,4.464,4.4649,4.465,4.4657,4.4651,4.4627,4.4626,4.4626,4.4625,0,4.459,4.4575,4.4624,4.4621,4.4621,4.4657,4.4654,4.4681,4.4671,4.4707,4.4713,4.4698,4.4725,4.4707,4.4734,4.4724,4.4784,4.477,4.4783,4.478,4.4828,4.4824,4.4983,4.5003,4.4851,4.4852,4.4854,0,4.466,4.4693,4.4694,4.4711,4.4715,4.4741,4.4755,4.4732,4.4748,4.4757,4.4783,4.4807,4.4825,4.4869,4.4861,4.4881,4.4869,4.4923,4.4871,4.4879,4.4871,4.487,4.4874,4.4934,4.4935,4.4937,4.4938,0,4.4786,4.4777,4.4799,4.4819,4.4837,4.4851,4.4862,4.4878,4.4854,4.4874,4.4901,4.4915,4.4943,4.4968,4.4985,4.4985,4.4959,4.4954,4.4966,4.4976,4.4983,4.4981,4.4813,4.4951,4.495,4.4949,4.4948,4.4947,4.4881,4.4909,4.4915,4.4941,4.4947,4.4959,4.4984,4.4978,4.5001,4.5023,4.5007,4.504,4.5046,4.5066,4.507,4.5096,4.5074,4.5091,4.5096,4.5101,4.5108,4.4977,4.5099,4.5098,4.5098,4.5098,4.5097,0,4.5007,4.5009,4.5033,4.5051,4.5071,4.5044,4.5055,4.5074,4.5104,4.5112,4.5131,4.5163,4.5187,4.5181,4.5202,4.5224,4.5212,4.5231,4.523,4.5231,4.5126,4.5114,4.524,4.524,4.524,4.524,4.524,4.524,4.5075,4.5122,4.5115,4.5165,4.5166,4.5199,4.5209,4.5219,4.5226,4.5264,4.5284,4.5279,4.5282,4.5304,4.5325,4.5322,4.5332,4.5356,4.5349,4.5252,4.5238,4.5224,4.5213,4.5358,4.5358,4.5452,4.5453,4.5453]}]]